, FL

(GMT )
Crestview

Weather History for KEGI - January, 2013

Change the Weather History Date:

Monday, January 21, 2013

  Actual Average Record
Temperature  
Mean Temperature 50 °F -  
Max Temperature 65 °F - - ()
Min Temperature 36 °F - - ()
Degree Days  
Heating Degree Days 14    
Moisture  
Dew Point 39 °F    
Average Humidity 68    
Maximum Humidity 95    
Minimum Humidity 35    
Precipitation  
Precipitation 0.00 in - - ()
Sea Level Pressure  
Sea Level Pressure 30.16 in    
Wind  
Wind Speed 2 mph (NNW)    
Max Wind Speed 12 mph    
Max Gust Speed -    
Visibility 10 miles    
Events      
Averages and records for this station are not official NWS values.
T = Trace of Precipitation, MM = Missing Value Source: NWS Daily Summary

Daily Weather History Graph

Daily Weather History Graph

Search for Another Location

Airport or City:

Trip Planner

Search our weather history database for the weather conditions in past years. The results will help you decide how hot, cold, wet, or windy it might be!

Date:

Astronomy

Jan. 21, 2013 Rise Set
Actual Time 6:42 AM CST 5:12 PM CST
Civil Twilight 6:16 AM CST 5:38 PM CST
Nautical Twilight 5:47 AM CST 6:07 PM CST
Astronomical Twilight 5:18 AM CST 6:36 PM CST
Moon 12:53 PM CST (1/21) 2:09 AM CST (1/21)
Length of Visible Light 11h 21m
Length of Day
10h 30m
Waxing Gibbous, 75% of the Moon is Illuminated
Jan 21
Waxing Gibbous
Jan 26
Full
Feb 3
Last Quarter
Feb 10
New
Feb 17
First Quarter

Hourly Weather History & Observations

Time (CST) Temp. Dew Point Humidity Pressure Visibility Wind Dir Wind Speed Gust Speed Precip Events Conditions
12:55 AM 39.6 °F 37.9 °F 94% 30.14 in 10.0 mi Calm Calm - N/A   Clear
1:55 AM 39.2 °F 37.6 °F 94% 30.13 in 10.0 mi Calm Calm - N/A   Clear
2:55 AM 38.7 °F 37.4 °F 95% 30.12 in 10.0 mi Calm Calm - N/A   Clear
3:55 AM 37.9 °F 36.7 °F 95% 30.12 in 10.0 mi Calm Calm - N/A   Clear
4:55 AM 39.4 °F 37.4 °F 93% 30.14 in 10.0 mi Calm Calm - N/A   Clear
5:55 AM 37.2 °F 35.8 °F 95% 30.14 in 10.0 mi Calm Calm - N/A   Clear
6:55 AM 36.5 °F 34.7 °F 93% 30.17 in 10.0 mi Calm Calm - N/A   Clear
7:55 AM 42.4 °F 41.0 °F 95% 30.18 in 10.0 mi Calm Calm - N/A   Clear
8:55 AM 50.7 °F 39.0 °F 64% 30.20 in 10.0 mi North 3.5 mph - N/A   Clear
9:55 AM 56.5 °F 39.0 °F 52% 30.22 in 10.0 mi Calm Calm - N/A   Clear
10:55 AM 62.1 °F 37.8 °F 41% 30.18 in 10.0 mi Variable 6.9 mph - N/A   Clear
11:55 AM 64.4 °F 37.4 °F 37% 30.15 in 10.0 mi North 11.5 mph - N/A   Clear
12:55 PM 64.8 °F 38.1 °F 37% 30.13 in 10.0 mi NNE 6.9 mph - N/A   Clear
1:55 PM 65.5 °F 38.3 °F 37% 30.12 in 10.0 mi Variable 6.9 mph - N/A   Clear
2:55 PM 64.9 °F 36.7 °F 35% 30.12 in 10.0 mi NW 10.4 mph - N/A   Clear
3:55 PM 64.0 °F 38.8 °F 39% 30.12 in 10.0 mi WNW 5.8 mph - N/A   Clear
4:55 PM 60.1 °F 42.6 °F 53% 30.13 in 10.0 mi Calm Calm - N/A   Clear
5:55 PM 54.0 °F 43.7 °F 68% 30.15 in 10.0 mi NNW 3.5 mph - N/A   Clear
6:55 PM 50.9 °F 43.2 °F 75% 30.17 in 10.0 mi NW 4.6 mph - N/A   Clear
7:55 PM 51.4 °F 40.5 °F 66% 30.18 in 10.0 mi NNW 6.9 mph - N/A   Clear
8:55 PM 52.3 °F 39.9 °F 63% 30.20 in 10.0 mi NNW 6.9 mph - N/A   Clear
9:55 PM 50.9 °F 39.6 °F 65% 30.21 in 10.0 mi Calm Calm - N/A   Clear
10:55 PM 48.4 °F 38.8 °F 70% 30.19 in 10.0 mi North 4.6 mph - N/A   Clear
11:55 PM 47.1 °F 38.5 °F 72% 30.19 in 10.0 mi North 3.5 mph - N/A   Clear